Date String (YYYY-MM-DD hh:mm:ss) UTC,Instrument flags,Ambient pressure (hPa),Sample flow (lpm),Bypass flow (lpm),Sample temperature (°C),Ambient temperature (°C),ASC tube jacket temperature (°C),LED temperature (°C),Box temperature (°C),Sample RH (%),Span deviation,Mass concentration (μg/m³),Mass concentration (μg/m³),Mass concentration (μg/m³)
DateTimeUTC,F1_M11,P_M11,Q1_M11,Q2_M11,T1_M11,T2_M11,T3_M11,T4_M11,T5_M11,U1_M11,ZSPAN_M11,X0_M11,X2_M11,X1_M11
2021-10-24 22:00:00,,0821.2,5.00,0.00,30.3,29.5,00.0,39.4,31.9,09.9,0000.0,0001.57,0000.89,0000.63
2021-10-24 22:01:00,,0821.2,5.00,0.00,30.3,29.5,00.0,39.4,32.0,10.0,0000.0,0001.55,0000.88,0000.64
2021-10-24 22:02:00,,0821.2,5.00,0.00,30.3,29.5,00.0,39.4,32.0,09.9,0000.0,0001.64,0000.90,0000.64
2021-10-24 22:03:00,,0821.2,4.99,0.00,30.3,29.5,00.0,39.4,32.0,09.9,0000.0,0001.71,0000.92,0000.64
2021-10-24 22:04:00,,0821.2,5.01,0.00,30.3,29.5,00.0,39.4,32.0,09.9,0000.0,0001.61,0000.92,0000.64
2021-10-24 22:05:00,,0821.2,4.99,0.00,30.3,29.5,00.0,39.4,32.0,09.9,0000.0,0001.45,0000.90,0000.64
2021-10-24 22:06:00,,0821.3,5.02,0.00,30.3,29.5,00.0,39.4,32.0,10.0,0000.0,0002.23,0000.89,0000.65
2021-10-24 22:07:00,,0821.4,4.99,0.00,30.3,29.5,00.0,39.4,32.0,09.9,0000.0,0002.49,0000.90,0000.66
2021-10-24 22:08:00,,0821.4,4.99,0.00,30.3,29.5,00.0,39.4,32.0,09.8,0000.0,0002.52,0000.91,0000.66
2021-10-24 22:09:00,,0821.4,5.00,0.00,30.2,29.5,00.0,39.4,31.9,09.9,0000.0,0002.69,0000.94,0000.66
2021-10-24 22:10:00,,0821.4,5.00,0.00,30.2,29.5,00.0,39.4,31.9,10.0,0000.0,0002.69,0000.93,0000.65
2021-10-24 22:11:00,,0821.4,4.99,0.00,30.2,29.5,00.0,39.4,31.9,10.0,0000.0,0003.42,0000.99,0000.65
2021-10-24 22:12:00,,0821.3,5.00,0.00,30.2,29.4,00.0,39.4,31.9,10.1,0000.0,0003.75,0001.01,0000.65
2021-10-24 22:13:00,,0821.4,5.00,0.00,30.2,29.4,00.0,39.4,31.9,10.1,0000.0,0003.73,0001.00,0000.65
2021-10-24 22:14:00,,0821.4,4.99,0.00,30.2,29.5,00.0,39.4,31.9,10.1,0000.0,0003.71,0001.01,0000.65
2021-10-24 22:15:00,,0821.3,5.01,0.00,30.2,29.4,00.0,39.4,31.9,10.1,0000.0,0003.77,0001.05,0000.66
2021-10-24 22:16:00,,0821.4,5.00,0.00,30.2,29.5,00.0,39.4,31.9,10.0,0000.0,0004.43,0001.05,0000.66
2021-10-24 22:17:00,,0821.4,5.00,0.00,30.2,29.5,00.0,39.4,31.9,10.0,0000.0,0004.75,0001.08,0000.65
2021-10-24 22:18:00,,0821.4,5.02,0.00,30.2,29.5,00.0,39.4,31.9,10.0,0000.0,0004.59,0001.09,0000.65
2021-10-24 22:19:00,,0821.4,4.99,0.00,30.2,29.5,00.0,39.4,31.9,10.0,0000.0,0004.59,0001.09,0000.64
2021-10-24 22:20:00,,0821.4,5.00,0.00,30.2,29.5,00.0,39.4,31.9,10.0,0000.0,0004.58,0001.10,0000.64
2021-10-24 22:21:00,,0821.4,5.00,0.00,30.2,29.5,00.0,39.4,31.9,10.0,0000.0,0004.61,0001.13,0000.64
2021-10-24 22:22:00,,0821.4,5.00,0.00,30.2,29.5,00.0,39.4,31.9,10.0,0000.0,0004.06,0001.08,0000.64
2021-10-24 22:23:00,,0821.4,5.00,0.00,30.2,29.5,00.0,39.4,31.9,10.1,0000.0,0003.57,0001.07,0000.64
2021-10-24 22:24:00,,0821.4,5.00,0.00,30.2,29.5,00.0,39.4,31.9,10.1,0000.0,0003.54,0001.06,0000.64
2021-10-24 22:25:00,,0821.4,5.00,0.00,30.2,29.5,00.0,39.4,31.9,10.1,0000.0,0003.54,0001.04,0000.64
2021-10-24 22:26:00,,0821.4,5.00,0.00,30.3,29.5,00.0,39.4,31.9,10.1,0000.0,0003.48,0001.02,0000.63
2021-10-24 22:27:00,,0821.5,5.00,0.00,30.3,29.5,00.0,39.4,31.9,10.1,0000.0,0003.19,0000.99,0000.62
2021-10-24 22:28:00,,0821.4,4.99,0.00,30.3,29.5,00.0,39.4,32.0,10.1,0000.0,0002.03,0000.95,0000.62
2021-10-24 22:29:00,,0821.4,5.00,0.00,30.3,29.5,00.0,39.4,32.0,10.1,0000.0,0002.62,0000.95,0000.62
2021-10-24 22:30:00,,0821.4,5.01,0.00,30.3,29.5,00.0,39.4,32.0,10.1,0000.0,0002.71,0000.98,0000.61
2021-10-24 22:31:00,,0821.4,5.00,0.00,30.3,29.6,00.0,39.4,32.0,10.1,0000.0,0002.61,0000.95,0000.60
2021-10-24 22:32:00,,0821.4,5.00,0.00,30.3,29.6,00.0,39.4,32.0,10.1,0000.0,0002.56,0000.93,0000.60
2021-10-24 22:33:00,,0821.4,5.01,0.00,30.3,29.6,00.0,39.4,32.1,10.0,0000.0,0002.73,0000.98,0000.60
2021-10-24 22:34:00,,0821.4,5.00,0.00,30.4,29.6,00.0,39.4,32.0,09.9,0000.0,0002.88,0001.01,0000.60
2021-10-24 22:35:00,,0821.5,5.00,0.00,30.4,29.6,00.0,39.4,32.1,09.9,0000.0,0002.84,0000.99,0000.59
2021-10-24 22:36:00,,0821.5,5.00,0.00,30.4,29.6,00.0,39.4,32.1,10.0,0000.0,0002.95,0001.01,0000.58
2021-10-24 22:37:00,,0821.5,5.00,0.00,30.4,29.6,00.0,39.4,32.0,10.0,0000.0,0002.98,0000.99,0000.58
2021-10-24 22:38:00,,0821.5,5.01,0.00,30.4,29.6,00.0,39.4,32.0,10.0,0000.0,0003.04,0000.99,0000.58
2021-10-24 22:39:00,,0821.6,4.99,0.00,30.3,29.6,00.0,39.4,32.0,10.0,0000.0,0002.52,0000.97,0000.57
2021-10-24 22:40:00,,0821.5,5.01,0.00,30.3,29.6,00.0,39.4,32.0,10.0,0000.0,0002.72,0000.97,0000.57
2021-10-24 22:41:00,,0821.6,4.99,0.00,30.3,29.6,00.0,39.4,32.0,10.1,0000.0,0003.03,0000.95,0000.58
2021-10-24 22:42:00,,0821.5,5.00,0.00,30.3,29.6,00.0,39.5,32.0,10.2,0000.0,0003.11,0000.98,0000.58
2021-10-24 22:43:00,,0821.6,5.01,0.00,30.3,29.6,00.0,39.5,32.0,10.1,0000.0,0003.32,0001.02,0000.59
2021-10-24 22:44:00,,0821.6,4.99,0.00,30.3,28.4,00.0,39.4,31.9,10.1,0000.0,0003.21,0000.98,0000.58
2021-10-24 22:45:00,,0821.7,5.00,0.00,30.2,26.4,00.0,39.4,31.4,10.1,0000.0,0003.06,0000.95,0000.57
2021-10-24 22:46:00,,0821.7,5.00,0.00,30.1,26.1,00.0,39.3,31.4,10.2,0000.0,0003.46,0000.95,0000.57
2021-10-24 22:47:00,,0821.6,5.01,0.00,30.0,26.5,00.0,39.3,31.4,10.3,0000.0,0003.70,0000.92,0000.57
2021-10-24 22:48:00,,0821.7,4.99,0.00,29.9,27.0,00.0,39.2,31.4,10.2,0000.0,0003.69,0000.92,0000.57
2021-10-24 22:49:00,,0821.7,5.00,0.00,29.9,27.4,00.0,39.2,31.4,10.2,0000.0,0003.74,0000.93,0000.56
2021-10-24 22:50:00,,0821.8,5.00,0.00,29.9,27.7,00.0,39.1,31.4,10.2,0000.0,0003.78,0000.93,0000.56
2021-10-24 22:51:00,,0821.8,5.00,0.00,29.9,28.0,00.0,39.1,31.5,10.1,0000.0,0003.06,0000.91,0000.54
2021-10-24 22:52:00,,0821.8,4.99,0.00,29.9,28.2,00.0,39.1,31.5,10.1,0000.0,0002.60,0000.87,0000.53
2021-10-24 22:53:00,,0821.8,5.00,0.00,29.9,28.4,00.0,39.1,31.5,10.2,0000.0,0002.54,0000.83,0000.52
2021-10-24 22:54:00,,0821.8,5.00,0.00,29.9,28.6,00.0,39.1,31.5,10.2,0000.0,0002.74,0000.82,0000.52
2021-10-24 22:55:00,,0821.8,4.99,0.00,29.9,28.7,00.0,39.0,31.6,10.2,0000.0,0003.29,0000.82,0000.52
2021-10-24 22:56:00,,0821.8,5.02,0.00,29.9,28.8,00.0,39.0,31.6,10.2,0000.0,0003.24,0000.80,0000.52
2021-10-24 22:57:00,,0821.8,5.00,0.00,29.9,28.8,00.0,39.0,31.6,10.2,0000.0,0003.72,0000.82,0000.52
2021-10-24 22:58:00,,0821.8,4.99,0.00,29.9,28.9,00.0,39.0,31.6,10.2,0000.0,0003.84,0000.83,0000.51
2021-10-24 22:59:00,,0821.8,5.00,0.00,29.9,28.9,00.0,39.0,31.6,10.2,0000.0,0003.84,0000.84,0000.52
